| time (UTC) | temp C | wind direction | speed KPH | gust KPH | rain 1hr cm | rain 24hr cm | rain mn cm | humidity % | barometer mb |
| 20260503040017 | 23 | 331 | 0.0 | 3.2 | 0.00 | 0.00 | 0.00 | 34 | 1012.3 |
| 20260503034503 | 23 | 346 | 0.0 | 0.0 | 0.00 | 0.00 | 0.00 | 35 | 1012.1 |
| 20260503033012 | 25 | 346 | 0.0 | 1.6 | 0.00 | 0.00 | 0.00 | 32 | 1011.9 |
| 20260503031508 | 25 | 346 | 0.0 | 0.0 | 0.00 | 0.00 | 0.00 | 30 | 1011.7 |
| 20260503030005 | 26 | 346 | 0.0 | 3.2 | 0.00 | 0.00 | 0.00 | 28 | 1011.5 |
| 20260503023005 | 27 | 341 | 0.0 | 1.6 | 0.00 | 0.00 | 0.00 | 26 | 1011.3 |
| 20260503021518 | 27 | 9 | 0.0 | 4.8 | 0.00 | 0.00 | 0.00 | 25 | 1011.3 |
| 20260503020021 | 28 | 348 | 0.0 | 4.8 | 0.00 | 0.00 | 0.00 | 24 | 1011.2 |
| 20260503014509 | 28 | 74 | 0.0 | 4.8 | 0.00 | 0.00 | 0.00 | 24 | 1011.2 |
| 20260503013006 | 28 | 327 | 0.0 | 3.2 | 0.00 | 0.00 | 0.00 | 24 | 1011.2 |
| 20260503011506 | 29 | 69 | 0.0 | 8.0 | 0.00 | 0.00 | 0.00 | 25 | 1011.2 |
| 20260503010012 | 29 | 101 | 1.6 | 9.7 | 0.00 | 0.00 | 0.00 | 23 | 1011.3 |
| 20260503004519 | 30 | 298 | 1.6 | 9.7 | 0.00 | 0.00 | 0.00 | 22 | 1011.3 |
| 20260503003031 | 30 | 86 | 0.0 | 6.4 | 0.00 | 0.00 | 0.00 | 23 | 1011.5 |
| 20260503001518 | 31 | 80 | 1.6 | 4.8 | 0.00 | 0.00 | 0.00 | 22 | 1011.4 |
| 20260503000027 | 31 | 90 | 0.0 | 6.4 | 0.00 | 0.00 | 0.00 | 23 | 1011.4 |
| 20260502234539 | 31 | 71 | 0.0 | 3.2 | 0.00 | 0.00 | 0.00 | 23 | 1011.5 |
| 20260502231530 | 30 | 117 | 1.6 | 4.8 | 0.00 | 0.00 | 0.00 | 24 | 1011.7 |
| 20260502230023 | 30 | 130 | 1.6 | 6.4 | 0.00 | 0.00 | 0.00 | 24 | 1011.9 |
| 20260502224517 | 30 | 247 | 0.0 | 6.4 | 0.00 | 0.00 | 0.00 | 25 | 1012.3 |
| 20260502223033 | 30 | 109 | 1.6 | 9.7 | 0.00 | 0.00 | 0.00 | 26 | 1012.5 |
| 20260502221503 | 30 | 115 | 0.0 | 4.8 | 0.00 | 0.00 | 0.00 | 28 | 1012.8 |
| 20260502214511 | 29 | 311 | 0.0 | 4.8 | 0.00 | 0.00 | 0.00 | 28 | 1013.1 |
| 20260502213006 | 28 | 327 | 0.0 | 3.2 | 0.00 | 0.00 | 0.00 | 30 | 1013.3 |
| 20260502211510 | 28 | 301 | 1.6 | 6.4 | 0.00 | 0.00 | 0.00 | 31 | 1013.4 |
| 20260502210014 | 28 | 5 | 1.6 | 8.0 | 0.00 | 0.00 | 0.00 | 33 | 1013.6 |
| 20260502204508 | 27 | 301 | 1.6 | 9.7 | 0.00 | 0.00 | 0.00 | 34 | 1013.7 |
| 20260502203012 | 27 | 39 | 1.6 | 4.8 | 0.00 | 0.00 | 0.00 | 31 | 1013.9 |
| 20260502201510 | 27 | 223 | 0.0 | 3.2 | 0.00 | 0.00 | 0.00 | 38 | 1014.1 |
| 20260502200008 | 26 | 329 | 1.6 | 6.4 | 0.00 | 0.00 | 0.00 | 39 | 1014.4 |
| 20260502194512 | 26 | 329 | 0.0 | 4.8 | 0.00 | 0.00 | 0.00 | 38 | 1014.6 |
| 20260502193014 | 25 | 300 | 0.0 | 4.8 | 0.00 | 0.00 | 0.00 | 42 | 1014.8 |
| 20260502191516 | 25 | 337 | 1.6 | 4.8 | 0.00 | 0.00 | 0.00 | 39 | 1014.8 |
| 20260502190023 | 25 | 360 | 0.0 | 4.8 | 0.00 | 0.00 | 0.00 | 43 | 1015.1 |
| 20260502184523 | 24 | 157 | 0.0 | 4.8 | 0.00 | 0.00 | 0.00 | 43 | 1015.1 |
| 20260502183016 | 23 | 306 | 3.2 | 11.3 | 0.00 | 0.00 | 0.00 | 40 | 1015.3 |
| 20260502181516 | 23 | 294 | 0.0 | 8.0 | 0.00 | 0.00 | 0.00 | 43 | 1015.3 |
| 20260502163037 | 18 | 302 | 0.0 | 4.8 | 0.00 | 0.00 | 0.00 | 54 | 1015.1 |
| 20260502161512 | 17 | 299 | 0.0 | 3.2 | 0.00 | 0.00 | 0.00 | 56 | 1015.0 |
| 20260502151503 | 15 | 292 | 0.0 | 1.6 | 0.00 | 0.00 | 0.00 | 64 | 1015.0 |
| 20260502123005 | 12 | 226 | 0.0 | 1.6 | 0.00 | 0.00 | 0.00 | 67 | 1014.3 |
| 20260502121509 | 12 | 226 | 0.0 | 3.2 | 0.00 | 0.00 | 0.00 | 67 | 1014.3 |
| 20260502114520 | 13 | 226 | 0.0 | 0.0 | 0.00 | 0.00 | 0.00 | 63 | 1014.2 |
| 20260502113016 | 13 | 226 | 0.0 | 0.0 | 0.00 | 0.00 | 0.00 | 63 | 1014.2 |
| 20260502111511 | 13 | 226 | 0.0 | 3.2 | 0.00 | 0.00 | 0.00 | 62 | 1014.2 |
| 20260502104516 | 13 | 226 | 0.0 | 0.0 | 0.00 | 0.00 | 0.00 | 61 | 1014.1 |
| 20260502103018 | 13 | 226 | 0.0 | 4.8 | 0.00 | 0.00 | 0.00 | 61 | 1014.2 |
| 20260502101520 | 13 | 184 | 0.0 | 0.0 | 0.00 | 0.00 | 0.00 | 59 | 1014.1 |
| 20260502091511 | 14 | 202 | 0.0 | 4.8 | 0.00 | 0.00 | 0.00 | 58 | 1014.1 |
| 20260502071516 | 15 | 214 | 0.0 | 6.4 | 0.00 | 0.00 | 0.00 | 56 | 1014.0 |
| 20260502070004 | 16 | 70 | 0.0 | 0.0 | 0.00 | 0.00 | 0.00 | 55 | 1014.1 |
| 20260502064504 | 16 | 70 | 0.0 | 0.0 | 0.00 | 0.00 | 0.00 | 54 | 1014.0 |
| 20260502063012 | 16 | 70 | 0.0 | 0.0 | 0.00 | 0.00 | 0.00 | 53 | 1014.1 |
| 20260502061519 | 16 | 70 | 0.0 | 0.0 | 0.00 | 0.00 | 0.00 | 52 | 1014.0 |
| 20260502060017 | 17 | 70 | 0.0 | 0.0 | 0.00 | 0.00 | 0.00 | 52 | 1013.9 |
| 20260502054507 | 17 | 70 | 0.0 | 0.0 | 0.00 | 0.00 | 0.00 | 50 | 1013.8 |
| 20260502053008 | 17 | 70 | 0.0 | 0.0 | 0.00 | 0.00 | 0.00 | 50 | 1013.8 |
| 20260502051505 | 17 | 70 | 0.0 | 0.0 | 0.00 | 0.00 | 0.00 | 48 | 1013.8 |
| 20260502050020 | 18 | 70 | 0.0 | 0.0 | 0.00 | 0.00 | 0.00 | 47 | 1013.8 |
| 20260502044524 | 19 | 70 | 0.0 | 0.0 | 0.00 | 0.00 | 0.00 | 46 | 1013.8 |
| 20260502043009 | 20 | 70 | 0.0 | 0.0 | 0.00 | 0.00 | 0.00 | 45 | 1013.8 |
| 20260502041518 | 20 | 70 | 0.0 | 0.0 | 0.00 | 0.00 | 0.00 | 43 | 1013.8 |